Wind_Speed
20 22 24 25 25 30 33 34 34 33 33 33 32 32 32 30 27 27 26 25 23 21 20 18 19 19 19 19 21 18 21 21
20 18 16 34 31 31 34 33 33 32 31 31 30 29 29 28 27 26 24 22 20 19 18 18 20 17 15 18 20 23 19 18
16 18 17 31 27 27 30 29 31 30 28 27 28 28 28 27 26 25 22 19 18 16 15 19 20 16 15 13 16 15 13 14
18 29 29 31 27 27 32 30 31 31 28 26 28 25 25 26 24 22 19 16 15 13 12 12 9 11 10 11 13 12 12 11
29 30 31 31 36 30 27 32 32 31 28 26 23 22 24 23 22 19 16 13 12 11 10 10 12 9 7 9 13 10 8 9
34 33 33 34 34 33 26 30 35 31 23 29 24 23 24 22 19 18 16 14 13 8 11 10 9 7 7 9 8 9 7 7
33 36 39 35 35 36 32 33 34 23 29 28 22 23 22 19 18 16 14 13 12 10 11 9 7 6 7 8 9 8 8 4
30 33 39 39 39 38 34 33 31 26 25 24 21 19 18 17 14 12 14 13 12 12 7 7 8 4 6 7 6 6 2 5
26 32 38 39 37 36 36 34 27 15 21 21 16 13 10 12 10 15 14 16 14 12 10 10 10 5 4 5 6 4 2 2
25 30 36 33 33 36 38 34 25 18 25 23 16 10 12 11 14 15 17 15 16 18 15 12 10 10 8 6 6 2 5 2
28 34 36 33 33 37 34 32 34 31 27 26 14 14 12 15 16 17 17 19 16 14 14 14 14 11 9 10 8 7 8 7
31 35 35 35 32 33 34 36 34 36 26 17 18 19 21 17 18 17 20 20 16 16 17 13 16 14 11 14 11 14 14 11
28 28 36 38 33 32 29 34 37 32 25 29 26 24 20 22 23 18 22 21 21 20 18 20 12 12 13 6 13 17 17 15
30 33 37 37 34 36 31 35 34 36 34 27 24 25 23 26 24 20 27 22 21 23 23 19 18 13 7 4 1 5 15 16
36 37 40 42 37 29 27 26 25 29 32 31 28 26 27 29 24 22 25 22 23 25 26 22 17 16 19 7 1 3 3 12
38 40 41 38 34 29 30 24 24 29 34 31 31 34 31 25 23 26 22 22 24 25 25 23 16 18 16 16 10 5 3 1
37 36 36 36 36 34 35 32 33 31 31 32 30 28 26 27 26 25 24 25 26 23 26 24 24 18 16 9 11 11 10 4
38 38 37 36 40 41 37 30 36 33 31 32 25 27 29 30 27 24 27 25 25 23 22 20 26 19 14 12 13 8 9 8
42 41 39 39 42 44 43 41 40 38 39 37 33 29 28 26 29 26 26 26 26 24 22 23 23 24 18 16 14 11 10 9
43 42 41 42 44 48 46 46 41 39 39 40 34 34 31 33 32 28 24 26 28 25 24 25 22 24 20 18 16 14 9 6
Wind_Direction
157 166 156 149 152 142 146 141 140 137 138 139 138 140 138 138 138 136 132 126 120 114 102 94 101 103 92 83 69 128 105 92
126 121 135 143 138 152 140 143 141 139 139 138 138 140 139 138 139 138 134 129 122 114 107 99 109 92 77 72 83 122 109 97
135 141 127 117 138 136 142 142 138 136 134 134 136 134 137 138 139 139 136 130 121 119 113 107 105 90 82 82 67 118 104 91
158 159 148 146 138 157 146 139 137 139 134 132 132 131 133 134 137 137 136 134 126 123 123 118 86 92 101 96 75 103 96 97
162 157 150 151 154 151 151 149 144 136 134 139 136 136 136 134 134 138 140 143 141 134 122 109 103 110 114 118 84 87 87 104
154 156 153 151 153 157 155 151 145 136 150 152 146 136 140 140 147 153 154 156 154 149 133 125 123 108 89 92 110 79 81 104
147 153 155 154 160 161 158 153 138 149 152 151 151 147 148 154 157 162 163 163 174 166 160 152 142 123 116 104 100 94 79 91
147 149 149 155 156 157 151 146 152 155 150 145 151 142 159 160 157 164 174 191 184 172 173 157 165 135 117 134 122 119 102 53
123 141 146 144 144 148 148 137 154 150 136 138 157 156 170 174 204 195 198 184 191 194 172 172 156 157 135 113 115 139 111 166
134 138 155 147 140 143 149 159 154 144 142 175 176 196 202 197 196 197 187 191 193 179 175 179 198 194 162 151 154 216 287 243
140 143 152 146 144 151 155 166 173 170 181 189 207 220 209 208 218 210 197 193 193 197 203 199 188 185 202 197 205 235 244 209
158 152 156 166 160 161 174 173 176 194 200 211 233 231 231 224 220 211 204 203 203 203 203 199 200 194 204 218 230 227 221 218
162 163 164 165 169 174 174 188 193 201 215 227 236 221 232 230 226 213 205 206 203 205 205 212 191 194 209 226 228 221 222 218
173 173 170 176 179 178 183 186 204 210 216 221 226 230 224 232 222 210 209 208 207 209 212 202 217 216 199 218 284 214 220 223
178 180 181 180 182 193 206 202 201 205 215 225 225 225 224 228 226 212 213 215 212 209 209 212 214 219 214 202 172 207 220 239
184 183 187 196 203 208 208 205 207 213 215 219 226 226 225 220 216 216 224 210 214 216 211 207 208 218 211 219 226 204 170 13
191 195 197 199 203 207 209 212 214 221 220 225 226 221 222 218 217 214 216 209 218 217 208 210 223 223 202 198 220 225 232 171
193 196 201 203 208 211 213 220 216 214 212 207 210 220 215 218 209 210 217 215 215 215 220 229 218 217 214 210 217 212 211 205
195 199 206 209 210 214 217 219 221 218 211 208 212 208 209 229 223 218 215 219 221 222 209 206 215 223 217 227 234 231 230 210
195 200 205 207 212 217 218 218 223 213 215 214 209 216 222 233 222 219 225 228 226 223 218 220 226 218 235 222 227 224 221 243
Height
786 789 787 790 798 802 811 813 818 821 826 831 835 840 842 846 851 853 856 857 860 861 863 865 866 867 867 867 868 869 869 870
789 794 795 796 804 806 810 818 821 825 830 835 839 843 845 848 853 856 859 860 862 864 866 867 868 870 870 870 870 870 872 872
788 791 794 795 803 808 817 823 824 830 835 840 843 846 848 851 855 858 861 863 864 866 868 870 870 871 872 872 873 873 873 873
791 791 791 799 802 815 820 823 822 832 838 843 847 848 850 853 857 860 864 865 866 868 870 872 872 872 874 874 872 874 873 876
793 795 796 801 806 819 823 820 828 830 837 845 849 850 852 855 858 862 864 868 868 869 870 871 872 873 874 874 876 874 875 876
793 795 799 803 811 817 822 824 829 832 839 845 849 851 853 855 858 860 863 868 870 871 871 872 874 873 874 874 875 876 876 878
792 794 798 803 811 818 823 827 826 838 840 843 849 851 852 856 859 861 864 868 870 871 871 873 873 874 874 875 876 877 877 877
791 794 797 804 810 814 819 823 830 839 843 843 849 851 855 856 859 861 864 868 870 871 870 873 874 874 874 876 876 878 878 877
795 795 797 802 808 813 818 821 833 836 838 844 848 851 855 856 858 861 864 866 868 870 870 872 873 873 874 874 875 878 878 878
797 798 803 807 811 814 817 824 830 837 842 848 847 851 855 855 858 860 862 863 866 867 869 871 872 873 872 874 874 876 877 878
799 802 806 811 816 820 827 832 835 844 846 847 848 850 851 854 856 858 860 861 863 865 867 869 870 870 872 873 872 874 877 877
802 804 809 812 818 825 831 834 839 841 841 844 846 848 850 851 854 856 856 857 860 863 865 866 867 867 870 870 870 873 875 875
802 805 809 814 819 824 828 832 836 838 839 841 843 844 846 848 850 851 853 854 857 859 862 863 864 865 867 868 869 871 871 871
803 806 810 813 817 821 825 828 832 833 835 835 836 839 842 844 846 846 848 851 855 856 857 859 862 863 864 868 869 869 868 868
798 802 806 810 814 819 823 826 828 829 830 830 831 834 837 840 841 842 846 848 849 851 853 856 858 860 861 863 866 868 866 864
794 797 801 805 809 813 814 816 819 820 822 824 827 830 831 834 836 838 840 843 845 846 849 851 855 859 859 858 858 860 862 863
787 791 795 797 801 803 805 807 809 812 815 818 822 823 825 830 831 834 836 839 841 842 845 846 852 853 854 855 857 858 858 858
780 784 789 793 794 794 798 802 804 805 808 811 814 818 820 823 827 828 831 834 836 838 841 843 847 848 850 852 853 852 852 854
772 777 782 785 786 787 789 791 790 797 800 802 807 811 815 817 821 823 826 828 831 834 835 837 840 843 847 848 851 850 850 849
762 769 773 775 778 779 782 783 783 787 792 795 798 803 807 808 815 819 821 824 826 830 833 834 838 839 841 844 845 847 846 846